Flag for Faroe Islands Weather past 2 weeks in Tórshavn, Faroe Islands, Faroe Islands

Now
34 °F

Freezing rain. Passing clouds.


Feels Like: 19 °F
Forecast: 33 / 38 °F
Wind: 33 mph from North

Location: Soervaag / Vagar

Current Time: Apr 25, 2015 at 3:29:42 AM

Latest Report: Apr 25, 2015 at 2:50 AM


Visibility: 1 mi

Pressure: 29.59 "Hg

Humidity: 87%

Dew point: 30 °F

Location of TórshavnLocation

Historic Weather in Tórshavn — Graph

°F

Tórshavn temperature yesterday

Maximum temperature yesterday: 37 °F (at 10:50 AM)
Minimum temperature yesterday: 30 °F (at 7:50 AM)
Average temperature yesterday: 34 °F

Past Weeks' High & Low Weather Summary

 TemperatureHumidityPressure
High48 °F (Apr 17, 12:20 PM)100% (Apr 10, 10:50 AM)30.54 "Hg (Apr 10, 10:50 AM)
Low28 °F (Apr 13, 12:20 AM)53% (Apr 23, 3:50 PM)29.21 "Hg (Apr 11, 6:50 AM)
Average42 °F82%29.95 "Hg
* Reported Apr 10 2:20 AM — Apr 25 2:20 AM, Tórshavn, Weather by CustomWeather, © 2015

Note: Actual official high and low records may vary slightly from our data, if they occured in-between our weather recording intervals... More about our weather records

Advertising

Tórshavn weather history for previous 24 hours

 ConditionsComfort  
Time TempWeatherWind HumidityBarometerVisibility
2:20 AM
Sat, Apr 25
34 °FLight freezing rain. Passing clouds.36 mph81%29.62 "Hg3 mi
1:50 AM34 °FSprinkles. Passing clouds.32 mph81%29.62 "Hg5 mi
1:20 AM34 °FSprinkles. Passing clouds.28 mph87%29.62 "Hg5 mi
12:50 AM34 °FPassing clouds.28 mph75%29.62 "HgN/A
12:20 AM34 °FLight freezing rain. Passing clouds.28 mph75%29.62 "HgN/A
11:50 PM
Fri, Apr 24
34 °FLight snow. Passing clouds.25 mph81%29.62 "Hg4 mi
11:20 PM34 °FLight snow. Passing clouds.25 mph81%29.62 "Hg3 mi
10:20 PM34 °FLight freezing rain. Passing clouds.38 mph75%29.62 "Hg6 mi
9:50 PM34 °FLight freezing rain. Partly sunny.39 mph81%29.62 "HgN/A
9:20 PM34 °FLight snow. Overcast.38 mph81%29.62 "Hg2 mi
8:50 PM34 °FLight snow. Overcast.33 mph87%29.62 "Hg1 mi
8:20 PM34 °FRain. Overcast.26 mph93%29.59 "Hg4 mi
7:50 PM36 °FLight rain. Partly sunny.26 mph87%29.59 "HgN/A
7:20 PM36 °FSprinkles. Overcast.17 mph87%29.56 "HgN/A
6:50 PM36 °FSprinkles. Partly sunny.20 mph87%29.56 "HgN/A
6:20 PM37 °FSprinkles. Passing clouds.18 mph87%29.53 "HgN/A
5:50 PM37 °FSprinkles. Partly sunny.21 mph87%29.53 "HgN/A
5:20 PM37 °FSprinkles. Partly sunny.17 mph87%29.53 "HgN/A
4:50 PM36 °FSprinkles. Partly sunny.20 mph93%29.56 "HgN/A
4:20 PM36 °FLight rain. Overcast.17 mph87%29.56 "Hg4 mi
3:50 PM36 °FLight rain. More clouds than sun.10 mph87%29.56 "HgN/A
3:20 PM34 °FLight snow. More clouds than sun.5 mph100%29.59 "Hg5 mi
2:50 PM32 °FLight snow. Low clouds.17 mph100%29.59 "Hg1 mi
2:20 PM32 °FLight freezing rain. Low clouds.17 mph100%29.62 "Hg0 mi
1:50 PM36 °FSprinkles. Partly sunny.17 mph87%29.62 "HgN/A
1:20 PM36 °FSprinkles. Partly sunny.13 mph81%29.62 "HgN/A
12:50 PM36 °FSprinkles. Partly sunny.9 mph87%29.65 "HgN/A
12:20 PM37 °FSprinkles. Partly sunny.13 mph75%29.65 "HgN/A
11:50 AM34 °FRain showers. Partly sunny.17 mph87%29.65 "Hg2 mi
11:20 AM37 °FSprinkles. Partly sunny.13 mph65%29.65 "HgN/A
10:50 AM37 °FPartly sunny.12 mph70%29.65 "HgN/A
10:20 AM36 °FSprinkles. Partly sunny.8 mph75%29.68 "HgN/A
9:50 AM36 °FPartly sunny.10 mph70%29.68 "HgN/A
9:20 AM36 °FScattered clouds.9 mph65%29.68 "HgN/A
8:50 AM36 °FPartly sunny.12 mph75%29.68 "HgN/A
8:20 AM32 °FSprinkles. Partly sunny.7 mph87%29.71 "HgN/A
7:50 AM30 °FSnow flurries. Scattered clouds.9 mph86%29.71 "HgN/A
7:20 AM32 °FLight freezing rain. Passing clouds.9 mph75%29.71 "HgN/A
6:50 AM34 °FLight freezing rain. Scattered clouds.12 mph70%29.71 "HgN/A
6:20 AM34 °FLight snow. Passing clouds.9 mph65%29.71 "HgN/A
5:50 AM32 °FPassing clouds.13 mph69%29.74 "HgN/A
5:20 AM32 °FPassing clouds.10 mph64%29.74 "HgN/A
4:50 AM32 °FPassing clouds.8 mph64%29.74 "HgN/A
3:50 AM32 °FPassing clouds.9 mph69%29.77 "HgN/A
3:20 AM32 °FLight freezing rain. Partly cloudy.10 mph69%29.77 "HgN/A
Weather by CustomWeather, © 2015

See weather overviewHow to use our weather pages